When you browse on this site, cookies collect data to enhance your experience and personalize the content and advertising you see.
Visit our Privacy Policy to learn more. By continuing to use the site, you agree to this use of cookies and data.
  • In Portugal
  • List of Countries
  • For 7 days
  • Water Temperature
  • Weather Map
  • Weather Widgets
  • user-avatar
    Login

    Hourly Weather Medina del Campo

    Today, 24 August, Saturday

    Time Temperature Precipitation Wind Pressure Humidity
    00:00 +24°C° 0 mm 2 mps 702 mmHg 25%
    01:00 +23°C° 0 mm 2 mps 702 mmHg 26%
    02:00 +22°C° 0 mm 1 mps 702 mmHg 28%
    03:00 +21°C° 0 mm 1 mps 702 mmHg 30%
    04:00 +21°C° 0 mm 1 mps 701 mmHg 31%
    05:00 +21°C° 0 mm 1 mps 701 mmHg 32%
    06:00 +20°C° 0 mm 1 mps 701 mmHg 33%
    07:00 +23°C° 0 mm 1 mps 702 mmHg 28%
    08:00 +26°C° 0 mm 1 mps 702 mmHg 24%
    09:00 +29°C° 0 mm 1 mps 703 mmHg 20%
    10:00 +31°C° 0 mm 1 mps 703 mmHg 18%
    11:00 +33°C° 0 mm 1 mps 703 mmHg 16%
    12:00 +35°C° 0 mm 1 mps 702 mmHg 15%
    13:00 +35°C° 0 mm 1 mps 702 mmHg 14%
    14:00 +37°C° 0 mm 2 mps 702 mmHg 13%
    15:00 +37°C° 0 mm 2 mps 702 mmHg 12%
    16:00 +37°C° 0 mm 2 mps 701 mmHg 13%
    17:00 +36°C° 0 mm 2 mps 701 mmHg 13%
    18:00 +36°C° 0 mm 2 mps 700 mmHg 14%
    19:00 +32°C° 0 mm 2 mps 700 mmHg 17%
    20:00 +30°C° 0 mm 2 mps 700 mmHg 21%
    21:00 +27°C° 0 mm 2 mps 700 mmHg 24%
    22:00 +26°C° 0 mm 2 mps 700 mmHg 26%
    23:00 +26°C° 0 mm 2 mps 700 mmHg 27%

    Tomorrow, 25 August, Sunday

    Time Temperature Precipitation Wind Pressure Humidity
    00:00 +25°C° 0 mm 3 mps 700 mmHg 29%
    01:00 +24°C° 0 mm 3 mps 700 mmHg 31%
    02:00 +22°C° 0 mm 3 mps 699 mmHg 34%
    03:00 +21°C° 0 mm 3 mps 699 mmHg 36%
    04:00 +21°C° 0 mm 3 mps 699 mmHg 38%
    05:00 +21°C° 0 mm 2 mps 699 mmHg 39%
    06:00 +20°C° 0 mm 2 mps 699 mmHg 41%
    07:00 +25°C° 0 mm 3 mps 700 mmHg 34%
    08:00 +28°C° 0 mm 4 mps 700 mmHg 28%
    09:00 +32°C° 0 mm 4 mps 701 mmHg 21%
    10:00 +34°C° 0 mm 5 mps 701 mmHg 19%
    11:00 +35°C° 0 mm 5 mps 700 mmHg 18%
    12:00 +36°C° 0 mm 6 mps 700 mmHg 16%
    13:00 +36°C° 0 mm 6 mps 700 mmHg 16%
    14:00 +36°C° 0 mm 7 mps 699 mmHg 17%
    15:00 +35°C° 0 mm 7 mps 699 mmHg 17%
    16:00 +34°C° 0 mm 6 mps 699 mmHg 19%
    17:00 +33°C° 0 mm 6 mps 699 mmHg 21%
    18:00 +33°C° 0 mm 6 mps 698 mmHg 24%
    19:00 +28°C° 0.5 mm 5 mps 699 mmHg 35%
    20:00 +25°C° 0.5 mm 4 mps 699 mmHg 47%
    21:00 +21°C° 0.5 mm 4 mps 699 mmHg 58%
    22:00 +21°C° 0 mm 3 mps 699 mmHg 59%
    23:00 +21°C° 0 mm 3 mps 699 mmHg 60%

    Day after tomorrow, 26 August, Monday

    Time Temperature Precipitation Wind Pressure Humidity
    00:00 +21°C° 0 mm 3 mps 699 mmHg 62%
    01:00 +20°C° 0 mm 2 mps 698 mmHg 61%
    02:00 +20°C° 0 mm 2 mps 698 mmHg 61%
    03:00 +21°C° 0 mm 1 mps 698 mmHg 61%
    04:00 +20°C° 0.3 mm 2 mps 698 mmHg 61%
    05:00 +20°C° 0.3 mm 2 mps 698 mmHg 62%
    06:00 +19°C° 0.3 mm 3 mps 698 mmHg 62%
    07:00 +21°C° 0.1 mm 4 mps 698 mmHg 56%
    08:00 +23°C° 0.1 mm 4 mps 698 mmHg 49%
    09:00 +25°C° 0.1 mm 4 mps 699 mmHg 43%
    10:00 +27°C° 0 mm 5 mps 699 mmHg 39%
    11:00 +29°C° 0 mm 5 mps 699 mmHg 35%
    12:00 +30°C° 0 mm 5 mps 699 mmHg 30%
    13:00 +30°C° 0.2 mm 5 mps 698 mmHg 32%
    14:00 +30°C° 0.2 mm 5 mps 698 mmHg 33%
    15:00 +29°C° 0.2 mm 5 mps 697 mmHg 34%
    16:00 +27°C° 1.6 mm 6 mps 697 mmHg 41%
    17:00 +23°C° 1.6 mm 7 mps 697 mmHg 47%
    18:00 +21°C° 1.6 mm 8 mps 697 mmHg 54%
    19:00 +20°C° 0.2 mm 6 mps 697 mmHg 57%
    20:00 +19°C° 0.2 mm 4 mps 698 mmHg 60%
    21:00 +19°C° 0.2 mm 2 mps 699 mmHg 62%
    22:00 +18°C° 0 mm 2 mps 698 mmHg 65%
    23:00 +18°C° 0 mm 2 mps 698 mmHg 68%

    27 August, Tuesday

    Time Temperature Precipitation Wind Pressure Humidity
    00:00 +17°C° 0 mm 2 mps 698 mmHg 71%
    01:00 +17°C° 0 mm 2 mps 698 mmHg 72%
    02:00 +18°C° 0 mm 1 mps 698 mmHg 73%
    03:00 +18°C° 0 mm 1 mps 698 mmHg 74%
    04:00 +16°C° 0 mm 1 mps 698 mmHg 74%
    05:00 +16°C° 0 mm 1 mps 698 mmHg 75%
    06:00 +16°C° 0 mm 2 mps 699 mmHg 75%
    07:00 +19°C° 0 mm 1 mps 699 mmHg 67%
    08:00 +21°C° 0 mm 1 mps 699 mmHg 60%
    09:00 +23°C° 0 mm 1 mps 700 mmHg 52%
    10:00 +24°C° 0 mm 1 mps 700 mmHg 46%
    11:00 +24°C° 0 mm 0 mps 700 mmHg 41%
    12:00 +26°C° 0 mm 0 mps 700 mmHg 35%
    13:00 +29°C° 0 mm 1 mps 700 mmHg 32%
    14:00 +29°C° 0 mm 1 mps 700 mmHg 30%
    15:00 +30°C° 0 mm 1 mps 700 mmHg 27%
    16:00 +30°C° 0 mm 1 mps 700 mmHg 27%
    17:00 +30°C° 0 mm 2 mps 700 mmHg 27%
    18:00 +30°C° 0 mm 2 mps 700 mmHg 27%
    19:00 +28°C° 0 mm 2 mps 700 mmHg 31%
    20:00 +26°C° 0 mm 2 mps 700 mmHg 35%
    21:00 +25°C° 0 mm 1 mps 700 mmHg 38%
    22:00 +24°C° 0 mm 1 mps 700 mmHg 42%
    23:00 +23°C° 0 mm 2 mps 700 mmHg 45%

    28 August, Wednesday

    Time Temperature Precipitation Wind Pressure Humidity
    00:00 +23°C° 0 mm 2 mps 700 mmHg 48%
    01:00 +22°C° 0 mm 1 mps 700 mmHg 50%
    02:00 +22°C° 0 mm 1 mps 700 mmHg 52%
    03:00 +21°C° 0 mm 1 mps 700 mmHg 53%
    04:00 +21°C° 0 mm 1 mps 700 mmHg 54%
    05:00 +20°C° 0 mm 1 mps 700 mmHg 55%
    06:00 +20°C° 0 mm 1 mps 700 mmHg 56%
    07:00 +20°C° 0 mm 0 mps 700 mmHg 49%
    08:00 +23°C° 0 mm 0 mps 701 mmHg 43%
    09:00 +25°C° 0 mm 0 mps 701 mmHg 36%
    10:00 +28°C° 0 mm 1 mps 701 mmHg 32%
    11:00 +30°C° 0 mm 2 mps 701 mmHg 29%
    12:00 +31°C° 0 mm 2 mps 701 mmHg 25%
    13:00 +32°C° 0 mm 2 mps 701 mmHg 24%
    14:00 +32°C° 0 mm 2 mps 700 mmHg 23%
    15:00 +34°C° 0 mm 2 mps 700 mmHg 22%
    16:00 +34°C° 0 mm 2 mps 700 mmHg 22%
    17:00 +32°C° 0 mm 2 mps 700 mmHg 23%
    18:00 +32°C° 0 mm 2 mps 700 mmHg 24%
    19:00 +30°C° 0 mm 2 mps 700 mmHg 27%
    20:00 +28°C° 0 mm 2 mps 700 mmHg 30%
    21:00 +27°C° 0 mm 1 mps 700 mmHg 33%
    22:00 +26°C° 0 mm 1 mps 700 mmHg 34%
    23:00 +25°C° 0 mm 1 mps 700 mmHg 35%

    29 August, Thursday

    Time Temperature Precipitation Wind Pressure Humidity
    00:00 +25°C° 0 mm 1 mps 700 mmHg 36%
    01:00 +24°C° 0 mm 1 mps 700 mmHg 39%
    02:00 +23°C° 0 mm 1 mps 700 mmHg 41%
    03:00 +23°C° 0 mm 1 mps 700 mmHg 43%
    04:00 +21°C° 0 mm 2 mps 700 mmHg 46%
    05:00 +21°C° 0 mm 2 mps 700 mmHg 49%
    06:00 +21°C° 0 mm 2 mps 700 mmHg 52%
    07:00 +24°C° 0 mm 2 mps 700 mmHg 47%
    08:00 +26°C° 0 mm 2 mps 700 mmHg 42%
    09:00 +28°C° 0 mm 2 mps 701 mmHg 37%
    10:00 +30°C° 0 mm 2 mps 701 mmHg 32%
    11:00 +31°C° 0 mm 3 mps 701 mmHg 27%
    12:00 +34°C° 0 mm 3 mps 701 mmHg 21%
    13:00 +35°C° 0 mm 4 mps 701 mmHg 20%
    14:00 +35°C° 0 mm 4 mps 700 mmHg 19%
    15:00 +36°C° 0 mm 4 mps 700 mmHg 18%
    16:00 +35°C° 0 mm 4 mps 700 mmHg 19%
    17:00 +35°C° 0 mm 4 mps 700 mmHg 20%
    18:00 +34°C° 0 mm 3 mps 699 mmHg 22%
    19:00 +31°C° 0 mm 3 mps 700 mmHg 24%
    20:00 +30°C° 0 mm 3 mps 700 mmHg 26%
    21:00 +28°C° 0 mm 2 mps 700 mmHg 28%
    22:00 +26°C° 0 mm 2 mps 700 mmHg 37%
    23:00 +25°C° 0 mm 2 mps 700 mmHg 47%
    Show more